Flag for U.S.A. Weather past 2 weeks in Vincennes, Indiana, U.S.A.

Now
83 °F

Partly sunny.


Feels Like: 82 °F
Forecast: 61 / 83 °F
Wind: 15 mph from South

Location: Lawrenceville-Vincennes International Airport

Current Time: May 5, 2015 at 5:28:41 PM

Latest Report: May 5, 2015 at 4:53 PM


Visibility: 10 mi

Pressure: 30.14 "Hg

Humidity: 34%

Dew point: 52 °F

Location of VincennesLocation

Historic Weather in Vincennes — Graph

°F

Vincennes temperature yesterday

Maximum temperature yesterday: 84 °F (at 4:53 PM)
Minimum temperature yesterday: 56 °F (at 2:53 AM)
Average temperature yesterday: 70 °F

Past Weeks' High & Low Weather Summary

 TemperatureHumidityPressure
High84 °F (May 4, 4:53 PM)97% (Apr 25, 10:53 AM)30.23 "Hg (Apr 25, 10:53 AM)
Low36 °F (Apr 24, 3:53 AM)19% (Apr 23, 5:53 PM)29.52 "Hg (Apr 25, 5:53 PM)
Average57 °F58%29.97 "Hg
* Reported Apr 20 3:53 PM — May 5 3:53 PM, Vincennes, Weather by CustomWeather, © 2015

Note: Actual official high and low records may vary slightly from our data, if they occured in-between our weather recording intervals... More about our weather records

Advertising

Vincennes weather history for previous 24 hours

 ConditionsComfort  
Time TempWeatherWind HumidityBarometerVisibility
3:53 PM
Tue, May 5
83 °FScattered clouds.13 mph36%30.16 "Hg10 mi
2:53 PM84 °FBroken clouds.16 mph36%30.18 "Hg10 mi
1:53 PM84 °FPassing clouds.13 mph33%30.20 "Hg10 mi
12:53 PM82 °FPassing clouds.16 mph34%30.22 "Hg10 mi
11:53 AM82 °FSunny.16 mph35%30.23 "Hg10 mi
10:53 AM79 °FSunny.15 mph45%30.22 "Hg10 mi
9:53 AM74 °FSunny.13 mph52%30.22 "Hg10 mi
8:53 AM68 °FSunny.7 mph65%30.22 "Hg10 mi
7:53 AM62 °FSunny.6 mph78%30.21 "Hg10 mi
6:53 AM59 °FPassing clouds.3 mph84%30.19 "Hg10 mi
5:53 AM59 °FClear.7 mph84%30.18 "Hg10 mi
4:53 AM61 °FPassing clouds.7 mph83%30.18 "Hg10 mi
3:53 AM61 °FPassing clouds.6 mph81%30.16 "Hg10 mi
2:53 AM63 °FClear.3 mph75%30.16 "Hg10 mi
1:53 AM63 °FPassing clouds.7 mph78%30.16 "Hg10 mi
12:53 AM66 °FClear.8 mph70%30.16 "Hg10 mi
11:53 PM
Mon, May 4
66 °FClear.9 mph70%30.15 "Hg10 mi
10:53 PM68 °FPassing clouds.9 mph65%30.14 "Hg10 mi
9:53 PM70 °FPassing clouds.6 mph64%30.13 "Hg10 mi
8:53 PM73 °FPassing clouds.7 mph55%30.11 "Hg10 mi
7:53 PM78 °FSunny.9 mph48%30.10 "Hg10 mi
6:53 PM82 °FPassing clouds.13 mph40%30.10 "Hg10 mi
5:53 PM82 °FBroken clouds.13 mph43%30.11 "Hg10 mi
Weather by CustomWeather, © 2015

See weather overviewHow to use our weather pages